Weather reports worldwide

Advertisment
Javea, Spain (8370): temperature & dewpoint: 16.02.2019 22:00:00 - 22.02.2019 22:00:00 (CET)Javea, Spain (8370): wind speed & gusts: 16.02.2019 22:00:00 - 22.02.2019 22:00:00 (CET)Javea, Spain (8370): wind direction: 16.02.2019 22:00:00 - 22.02.2019 22:00:00 (CET)Javea, Spain (8370): reduced air pressure: 16.02.2019 22:00:00 - 22.02.2019 22:00:00 (CET)Javea, Spain (8370): visibility: 16.02.2019 22:00:00 - 22.02.2019 22:00:00 (CET)Javea, Spain (8370): sunshine duration: 16.02.2019 22:00:00 - 22.02.2019 22:00:00 (CET)Javea, Spain (8370): precipitation: 16.02.2019 22:00:00 - 22.02.2019 22:00:00 (CET)
Date & Time tt [°C] td [°C] ff [km/h] ff [kn] fx [km/h] fx [kn] dd ppp [hPa] vv [km] sd [min] rr [mm]
22.02.2019 22:00:00 11,9 7,0 10 5 16 9 W 1028,1 15 0 0,0
22.02.2019 21:00:00 11,9 7,4 8 5 14 8 W 1028,0 13 0 0,0
22.02.2019 20:00:00 12,7 7,1 7 4 13 7 W 1028,3 15 0 0,0
22.02.2019 19:00:00 14,1 6,7 9 5 18 10 WSW 1028,2 20 28 -
22.02.2019 18:00:00 17,6 6,1 10 5 22 12 SW 1028,1 20 60 0,0
22.02.2019 17:00:00 19,7 1,1 13 7 24 13 SW 1028,6 20 60 0,0
22.02.2019 16:00:00 20,8 2,1 12 7 18 10 SW 1029,0 20 60 0,0
22.02.2019 15:00:00 19,9 5,1 6 3 15 8 E 1029,3 20 60 0,0
22.02.2019 14:00:00 18,1 7,6 9 5 17 9 ENE 1030,2 20 60 0,0
22.02.2019 13:00:00 17,8 4,6 8 4 16 9 ENE 1030,9 18 60 -
22.02.2019 12:00:00 19,6 5,3 3 2 13 7 S 1031,3 20 60 0,0
22.02.2019 11:00:00 15,9 6,8 6 4 13 7 WSW 1032,0 20 60 0,0
22.02.2019 10:00:00 11,0 5,3 7 4 15 8 WSW 1032,3 20 60 0,0
22.02.2019 09:00:00 6,1 3,6 8 5 14 8 WSW 1032,1 14 43 0,0
22.02.2019 08:00:00 2,4 0,9 11 6 14 7 WSW 1032,0 14 0 0,0
22.02.2019 07:00:00 2,5 1,3 11 6 14 7 WSW 1032,1 12 0 -
22.02.2019 06:00:00 2,4 1,3 8 4 13 7 WSW 1032,2 9 0 0,0
22.02.2019 05:00:00 3,2 2,1 10 5 14 8 WSW 1032,1 12 0 0,0
22.02.2019 04:00:00 3,7 2,7 11 6 13 7 WSW 1032,2 8 0 0,0
22.02.2019 03:00:00 3,8 2,9 9 5 12 6 WSW 1032,5 6 0 0,0
22.02.2019 02:00:00 4,0 3,0 9 5 10 6 WSW 1032,6 4,8 0 0,0
22.02.2019 01:00:00 4,2 2,9 8 5 10 6 WSW 1032,8 3,8 0 -
22.02.2019 00:00:00 5,1 3,8 9 5 12 6 WSW 1032,7 5 0 0,0
21.02.2019 23:00:00 6,2 4,5 8 4 13 7 WSW 1032,9 5 0 0,0
21.02.2019 22:00:00 7,7 5,6 8 4 10 5 W 1032,6 6 0 0,0
21.02.2019 21:00:00 8,2 5,6 6 3 9 5 WSW 1031,9 8 0 0,0
21.02.2019 20:00:00 8,8 5,1 4 2 6 3 W 1031,5 9 0 0,0
21.02.2019 19:00:00 11,9 6,5 4 2 10 6 S 1030,9 14 25 -
21.02.2019 18:00:00 14,6 7,4 6 4 16 8 E 1030,7 20 60 0,0
21.02.2019 17:00:00 15,6 7,6 6 3 19 10 E 1030,6 20 60 0,0
21.02.2019 16:00:00 15,8 7,8 8 5 19 10 E 1030,4 20 60 0,0
21.02.2019 15:00:00 15,5 7,0 11 6 18 10 ENE 1030,3 20 60 0,0
21.02.2019 14:00:00 16,3 7,0 9 5 18 10 ENE 1030,5 20 60 0,0
21.02.2019 13:00:00 16,4 5,6 7 4 19 10 E 1030,9 19 60 -
21.02.2019 12:00:00 16,3 6,7 6 4 14 8 NE 1031,1 17 60 0,0
21.02.2019 11:00:00 15,4 8,0 6 4 11 6 E 1031,0 20 60 0,0
21.02.2019 10:00:00 11,1 7,3 8 4 11 6 WSW 1030,8 14 58 0,0
21.02.2019 09:00:00 5,4 4,5 9 5 11 6 WSW 1030,5 11 40 0,0
21.02.2019 08:00:00 2,9 2,1 8 5 13 7 WSW 1029,7 6 0 0,0
21.02.2019 07:00:00 2,7 1,7 8 4 11 6 WSW 1029,0 6 0 -
21.02.2019 06:00:00 3,2 2,1 8 5 11 6 WSW 1028,7 5 0 0,0
21.02.2019 05:00:00 3,8 2,9 8 4 13 7 WSW 1028,6 7 0 0,0
21.02.2019 04:00:00 4,2 3,2 10 5 13 7 WSW 1028,7 6 0 0,0
21.02.2019 03:00:00 4,9 3,8 9 5 16 9 W 1028,9 5 0 0,0
21.02.2019 02:00:00 5,2 4,1 8 5 13 7 W 1028,8 8 0 0,0
21.02.2019 01:00:00 5,2 3,9 9 5 13 7 WSW 1028,6 4,2 0 -
21.02.2019 00:00:00 5,9 4,5 9 5 11 6 WSW 1028,4 5 0 0,0
20.02.2019 23:00:00 6,8 5,3 10 5 13 7 WSW 1028,2 6 0 0,0
20.02.2019 22:00:00 7,2 5,3 9 5 11 6 WSW 1028,0 6 0 0,0
20.02.2019 21:00:00 8,3 5,9 7 4 9 5 WSW 1027,4 6 0 0,0
20.02.2019 20:00:00 9,8 6,4 4 2 7 4 SW 1027,0 4,3 0 0,0
20.02.2019 19:00:00 12,5 7,6 4 2 11 6 ENE 1026,3 17 17 -
20.02.2019 18:00:00 13,9 7,7 7 4 16 9 ENE 1025,8 19 60 0,0
20.02.2019 17:00:00 15,1 7,4 8 4 17 9 ENE 1025,7 20 60 0,0
20.02.2019 16:00:00 16,0 7,3 8 4 20 11 NE 1025,7 20 60 0,0
20.02.2019 15:00:00 - - - - - - - - - - -
20.02.2019 14:00:00 - - - - - - - - - - -
20.02.2019 13:00:00 17,0 6,5 12 6 25 13 N 1026,2 20 60 -
20.02.2019 12:00:00 15,9 6,5 14 8 26 14 NNW 1026,5 19 60 0,0
20.02.2019 11:00:00 14,9 6,7 14 7 25 13 NNW 1026,0 17 60 0,0
20.02.2019 10:00:00 12,5 7,4 7 4 15 8 W 1025,6 20 60 0,0
20.02.2019 09:00:00 9,1 6,7 7 4 14 7 W 1025,2 17 40 0,0
20.02.2019 08:00:00 6,4 4,8 9 5 14 8 WSW 1024,5 15 0 0,0
20.02.2019 07:00:00 6,8 5,1 8 4 13 7 WSW 1023,8 12 0 -
20.02.2019 06:00:00 7,9 6,2 8 4 14 8 W 1023,5 16 0 0,0
20.02.2019 05:00:00 7,1 5,8 7 4 16 8 W 1023,6 9 0 0,0
20.02.2019 04:00:00 7,9 6,8 7 4 12 6 W 1023,8 14 0 0,0
20.02.2019 03:00:00 7,1 6,1 7 4 11 6 W 1024,0 12 0 0,0
20.02.2019 02:00:00 6,5 5,1 8 4 10 5 WSW 1023,9 5 0 0,0
20.02.2019 01:00:00 8,4 6,7 7 4 11 6 WSW 1023,9 6 0 -
20.02.2019 00:00:00 9,0 7,6 8 4 13 7 W 1023,8 10 0 0,0
19.02.2019 23:00:00 8,1 6,4 6 3 8 5 WSW 1023,7 7 0 0,0
19.02.2019 22:00:00 8,1 6,1 6 4 8 4 WSW 1023,3 7 0 0,0
19.02.2019 21:00:00 9,4 6,5 5 3 11 6 WSW 1022,9 11 0 0,0
19.02.2019 20:00:00 11,8 8,1 6 3 10 6 NNE 1022,5 20 0 0,0
19.02.2019 19:00:00 12,4 8,1 7 4 18 10 NNE 1021,9 19 13 -
19.02.2019 18:00:00 13,8 8,4 10 5 22 12 NNE 1021,4 18 52 0,0
19.02.2019 17:00:00 13,8 8,3 9 5 24 13 NNE 1021,5 20 42 0,0
19.02.2019 16:00:00 14,9 8,4 14 8 28 15 NNE 1021,7 20 33 0,0
19.02.2019 15:00:00 16,4 8,4 16 9 32 17 N 1021,9 20 46 0,0
19.02.2019 14:00:00 16,1 8,5 19 10 30 16 NNW 1022,3 20 56 0,0
19.02.2019 13:00:00 16,4 8,4 15 8 31 17 N 1022,6 18 60 -
19.02.2019 12:00:00 15,8 7,8 14 8 30 16 N 1022,9 19 60 0,0
19.02.2019 11:00:00 14,7 8,4 15 8 26 14 NNW 1022,9 15 54 0,0
19.02.2019 10:00:00 12,6 8,5 14 8 25 13 NW 1022,8 15 27 0,0
19.02.2019 09:00:00 11,4 8,7 9 5 20 11 NNW 1022,2 17 5 0,0
19.02.2019 08:00:00 10,8 8,4 12 6 23 12 NW 1021,5 12 0 0,0
19.02.2019 07:00:00 10,9 8,5 12 7 26 14 NNW 1021,3 12 0 -
19.02.2019 06:00:00 10,7 8,1 10 6 19 11 NNW 1021,3 15 0 0,0
19.02.2019 05:00:00 11,0 8,4 10 6 21 11 NW 1021,5 14 0 0,0
19.02.2019 04:00:00 11,4 8,1 11 6 21 11 NW 1021,5 20 0 0,0
19.02.2019 03:00:00 11,5 8,0 11 6 21 11 NNW 1021,7 20 0 0,0
19.02.2019 02:00:00 11,6 8,3 10 5 18 10 NNW 1021,9 20 0 0,0
19.02.2019 01:00:00 11,5 8,4 6 3 14 8 NNW 1022,0 20 0 -
19.02.2019 00:00:00 11,6 8,3 6 4 20 11 NNW 1022,1 20 0 0,0
18.02.2019 23:00:00 11,6 8,7 9 5 18 10 NNW 1022,2 18 0 0,0
18.02.2019 22:00:00 12,2 8,8 12 7 20 11 NNW 1022,1 20 0 0,0
18.02.2019 21:00:00 12,1 8,8 9 5 17 9 N 1021,9 20 0 0,0
18.02.2019 20:00:00 12,2 8,7 6 4 18 10 N 1021,6 18 0 0,0
18.02.2019 19:00:00 12,7 8,8 8 4 19 10 N 1021,0 20 23 -
18.02.2019 18:00:00 14,0 8,7 11 6 21 12 NNE 1020,7 20 42 0,0
18.02.2019 17:00:00 14,5 8,7 14 8 22 12 NE 1021,0 20 56 0,0
18.02.2019 16:00:00 15,8 8,5 11 6 26 14 NE 1021,1 20 60 0,0
18.02.2019 15:00:00 15,9 8,1 13 7 25 14 NE 1021,5 20 54 0,0
18.02.2019 14:00:00 15,9 8,1 14 8 24 13 NNE 1022,2 20 54 0,0
18.02.2019 13:00:00 17,0 8,9 14 8 28 15 N 1022,9 20 60 -
18.02.2019 12:00:00 16,2 8,9 16 8 27 15 NNW 1023,3 14 60 0,0
18.02.2019 11:00:00 15,2 8,9 15 8 27 14 N 1023,3 20 60 0,0
18.02.2019 10:00:00 12,7 8,9 5 3 15 8 SW 1023,4 13 60 0,0
18.02.2019 09:00:00 8,8 7,4 9 5 14 8 W 1023,2 17 36 0,0
18.02.2019 08:00:00 4,7 3,6 7 4 14 7 W 1022,9 15 0 0,0
18.02.2019 07:00:00 4,8 3,4 9 5 13 7 SW 1023,0 11 0 -
18.02.2019 06:00:00 5,3 3,9 8 5 14 7 W 1023,2 14 0 0,0
18.02.2019 05:00:00 5,5 3,6 5 3 13 7 SW 1023,0 11 0 0,0
18.02.2019 04:00:00 6,6 5,5 8 5 12 7 W 1023,6 18 0 0,0
18.02.2019 03:00:00 6,2 4,5 8 4 13 7 WSW 1024,2 13 0 0,0
18.02.2019 02:00:00 6,8 5,0 6 3 10 5 SW 1024,3 12 0 0,0
18.02.2019 01:00:00 9,0 7,0 5 3 12 7 WSW 1024,8 13 0 -
18.02.2019 00:00:00 8,7 7,1 5 3 11 6 W 1025,0 11 0 0,0
17.02.2019 23:00:00 8,4 6,8 7 4 10 6 WSW 1025,3 8 0 0,0
17.02.2019 22:00:00 9,9 7,8 6 4 10 6 WSW 1025,2 8 0 0,0
17.02.2019 21:00:00 10,7 8,0 7 4 11 6 SW 1024,9 11 0 0,0
17.02.2019 20:00:00 12,3 8,5 6 4 11 6 W 1024,7 16 0 0,0
17.02.2019 19:00:00 13,2 7,8 4 2 9 5 N 1024,5 19 0 -
17.02.2019 18:00:00 14,3 8,0 3 1 12 6 ENE 1024,4 20 0 0,0
17.02.2019 17:00:00 14,7 8,0 7 4 16 9 N 1024,8 20 10 0,0
17.02.2019 16:00:00 15,4 8,0 9 5 23 13 N 1025,2 20 34 0,0
17.02.2019 15:00:00 14,6 7,4 14 8 28 15 NNW 1025,8 20 3 0,0
17.02.2019 14:00:00 14,0 6,8 18 10 35 19 NNW 1026,6 20 39 0,0
17.02.2019 13:00:00 14,7 7,0 17 9 35 19 NNW 1027,3 19 56 -
17.02.2019 12:00:00 14,4 7,3 20 11 32 17 NNW 1027,7 20 51 0,0
17.02.2019 11:00:00 12,7 7,1 17 9 36 20 NNW 1027,9 20 26 0,0
17.02.2019 10:00:00 12,4 8,1 13 7 32 18 NW 1027,6 20 33 0,0
17.02.2019 09:00:00 10,7 7,6 9 5 23 12 WNW 1027,7 16 8 0,0
17.02.2019 08:00:00 9,8 7,6 11 6 21 12 NW 1027,6 15 0 0,0
17.02.2019 07:00:00 8,7 6,5 6 4 19 10 W 1027,4 17 0 -
17.02.2019 06:00:00 7,5 5,6 10 5 16 9 WSW 1027,5 19 0 0,0
17.02.2019 05:00:00 6,6 5,0 11 6 16 9 SW 1027,5 17 0 0,0
17.02.2019 04:00:00 6,8 4,8 6 4 13 7 WSW 1027,9 15 0 0,0
17.02.2019 03:00:00 7,0 4,6 5 3 10 5 WSW 1028,3 20 0 0,0
17.02.2019 02:00:00 7,6 5,1 6 3 13 7 SSW 1028,3 20 0 0,0
17.02.2019 01:00:00 8,4 5,6 9 5 20 11 W 1028,5 20 0 -
17.02.2019 00:00:00 7,8 5,1 5 3 12 6 SW 1028,8 20 0 0,0
16.02.2019 23:00:00 9,0 5,8 4 2 15 8 WSW 1028,9 20 0 0,0
16.02.2019 22:00:00 10,9 6,8 9 5 17 9 NNW 1029,1 20 0 0,0

tt = temperature
td = dewpoint
ff = wind speed
fx = gusts
dd = wind direction
ppp = reduced air pressure
vv = visibility
sd = sunshine duration
rr = precipitation

Next stations